Location: Marcé
(47.5801°N, 0.3280°W)
Time: 21:03:50
(UTC+01:00)

Vanguard 1 - Pass Details

Date: 01 December 2021
Orbit: 652 x 3830 km, 34.2° (Epoch: 16 January)

Event Time Altitude Azimuth Distance (km) Brightness Sun altitude
Rises 07:39:51 0° 278° (W) 7,534 - -8.1°
Exits shadow 07:42:45 - 275° (W) 6,918 13.8 -7.6°
Reaches altitude 10° 07:46:41 10° 268° (W) 6,068 13.5 -7.0°
Maximum altitude 07:59:08 25° 223° (SW) 3,831 12.9 -5.1°
Drops below altitude 10° 08:07:32 10° 174° (S) 3,959 13.7 -3.9°
Sets 08:10:51 0° 160° (SSE) 4,536 14.3 -3.4°
